Flag for U.S.A. Weather past 2 weeks in Everett, Washington, U.S.A.

Now
54 °F

Overcast.


Feels Like: 53 °F
Forecast: 50 / 63 °F
Wind: 5 mph from Southwest

Location: Snohomish County Airport

Current Time: Oct 1, 2014 at 9:26:01 AM

Latest Report: Oct 1, 2014 at 8:53 AM


Visibility: 10 mi

Pressure: 30.22 "Hg

Humidity: 86%

Dew point: 50 °F

Location of EverettLocation

Historic Weather in Everett — Graph

°F

Everett temperature yesterday

Maximum temperature yesterday: 62 °F (at 3:53 PM)
Minimum temperature yesterday: 52 °F (at 3:53 AM)
Average temperature yesterday: 56 °F

Past Weeks' High & Low Weather Summary

 TemperatureHumidityPressure
High80 °F (Sep 21, 1:53 PM)100% (Sep 18, 9:04 AM)30.21 "Hg (Sep 18, 9:04 AM)
Low52 °F (Sep 29, 4:53 AM)42% (Sep 21, 12:53 PM)29.68 "Hg (Sep 24, 12:53 AM)
Average60 °F83%29.94 "Hg
* Reported Sep 16 7:53 AM — Oct 1 7:53 AM, Everett, Weather by CustomWeather, © 2014

Note: Actual official high and low records may vary slightly from our data, if they occured in-between our weather recording intervals... More about our weather records

Advertising

Everett weather history for previous 24 hours

 ConditionsComfort  
Time TempWeatherWind HumidityBarometerVisibility
7:53 AM
Oct 1
54 °FOvercast.5 mph83%30.21 "Hg10 mi
6:53 AM52 °FOvercast.3 mph93%30.21 "Hg10 mi
5:53 AM53 °FOvercast.3 mph89%30.21 "Hg10 mi
4:53 AM53 °FPassing clouds.No wind86%30.20 "Hg10 mi
3:53 AM54 °FOvercast.3 mph80%30.19 "Hg10 mi
3:00 AM54 °FMostly cloudy.3 mph80%30.20 "Hg10 mi
1:53 AM54 °FPassing clouds.3 mph80%30.18 "Hg10 mi
12:53 AM54 °FPassing clouds.5 mph83%30.18 "Hg10 mi
11:53 PM
Sep 30
54 °FPassing clouds.6 mph83%30.17 "Hg10 mi
10:53 PM55 °FOvercast.5 mph83%30.17 "Hg10 mi
9:53 PM55 °FMostly cloudy.5 mph83%30.16 "Hg10 mi
8:53 PM56 °FOvercast.5 mph77%30.15 "Hg10 mi
7:53 PM56 °FOvercast.5 mph77%30.14 "Hg10 mi
6:53 PM57 °FPartly sunny.5 mph78%30.12 "Hg10 mi
5:53 PM59 °FSunny.6 mph67%30.12 "Hg10 mi
4:53 PM62 °FSunny.5 mph62%30.11 "Hg10 mi
3:53 PM62 °FPartly sunny.8 mph60%30.11 "Hg10 mi
2:53 PM60 °FScattered clouds.No wind69%30.11 "Hg10 mi
1:53 PM59 °FPartly sunny.3 mph75%30.11 "Hg10 mi
12:53 PM60 °FBroken clouds.9 mph69%30.11 "Hg10 mi
12:00 PM59 °FPassing clouds.7 mph72%30.11 "Hg10 mi
10:53 AM57 °FBroken clouds.N/A81%30.10 "Hg10 mi
9:53 AM57 °FBroken clouds.6 mph81%30.08 "Hg10 mi
Weather by CustomWeather, © 2014

See weather overviewHow to use our weather pages